Location: ????????
(55.4000°N, 39.1167°E)
Time: 04:56:11
(UTC+00:00)

ISS - Pass Details

Date: 19 May 2025
Orbit: 415 x 418 km, 51.6° (Epoch: 19 June)

Event Time Altitude Azimuth Distance (km) Brightness Sun altitude
Rises 18:36:36 0° 271° (W) 2,363 0.7 -7.1°
Reaches altitude 10° 18:38:48 10° 262° (W) 1,497 -0.5 -7.3°
Maximum altitude 18:41:52 33° 196° (SSW) 719 -2.9 -7.5°
Enters shadow 18:44:55 10° 130° (SE) 1,485 -1.6 -7.8°
